Terminal Aerodrome Forecast
Issued by NWS Louisville, KY

Home | Current Version | Previous Version | Text Only | Print | Product List | Glossary On
Versions: 1 2 3 4 5 6 7 8 9 10 11 12 13 14 15 16 17 18
000
FTUS43 KLMK 081700
TAFSDF
TAF
KSDF 081738Z 0818/0924 26013G23KT P6SM SCT050 SCT150
     FM081900 26012G21KT P6SM VCTS SCT045CB BKN150
     FM090000 26007KT P6SM SCT040 BKN250
     FM091400 29007KT P6SM SCT040=

USA.gov is the U.S. government's official web portal to all federal, state and local government web resources and services.